Location: Cartignies
(50.0929°N, 3.8447°E)
Time: 14:37:40
(UTC+00:00)

SJ 16-02 - Pass Details

Date: 12 January 2026
Orbit: 582 x 594 km, 75.0° (Epoch: 16 February)

Event Time Altitude Azimuth Distance (km) Brightness Sun altitude
Rises 17:34:44 0° 333° (NNW) 2,825 4.9 -13.5°
Reaches altitude 10° 17:37:00 10° 328° (NNW) 1,921 4.1 -13.9°
Maximum altitude 17:41:08 49° 254° (WSW) 763 2.3 -14.5°
Drops below altitude 10° 17:45:15 10° 179° (S) 1,913 4.1 -15.2°
Sets 17:47:30 0° 174° (S) 2,812 4.9 -15.5°
